Home   Weather   Perth   Past weeks

Flag for Australia Past Weather in Perth, Western Australia, Australia — Yesterday and Last 2 Weeks

Now
66 °F

Scattered clouds.


Feels Like: 66 °F
Forecast: 48 / 63 °F
Wind: 13 mph from Southwest

Location: Belmont Perth Airport

Current Time: May 26, 2017 at 1:21:10 pm

Latest Report: May 26, 2017 at 12:30 pm


Visibility: N/A

Pressure: 30.12 "Hg

Humidity: 56%

Dew Point: 50 °F

Location of PerthLocation

Past Weather in Perth — Graph

°F

Perth Temperature Yesterday

Maximum temperature yesterday: 72 °F (at 1:30 pm)
Minimum temperature yesterday: 46 °F (at 1:00 am)
Average temperature yesterday: 58 °F

High & Low Weather Summary for the Past Weeks

 TemperatureHumidityPressure
High79 °F (May 14, 1:00 pm)100% (May 16, 2:30 am)30.21 "Hg (May 16, 2:30 am)
Low46 °F (May 22, 1:00 am)22% (May 14, 12:30 pm)29.65 "Hg (May 21, 3:00 am)
Average60 °F76%30.01 "Hg
* Reported May 11 12:00 pm — May 26 12:00 pm, Perth. Weather by CustomWeather, © 2017

Note: Actual official high and low records may vary slightly from our data, if they occured in-between our weather recording intervals... More about our weather records

Advertising

Perth Weather History for the Previous 24 Hours

Scroll right to see more
 ConditionsComfort  
Time TempWeatherWind HumidityBarometerVisibility
12:00 pm
Fri, May 26
66 °FScattered clouds.10 mph52%30.15 "HgN/A
11:30 am66 °FPartly sunny.13 mph56%30.15 "HgN/A
11:00 am64 °FScattered clouds.13 mph60%30.15 "HgN/A
10:30 am64 °FPassing clouds.9 mph64%30.15 "HgN/A
9:30 am61 °FPassing clouds.10 mph83%30.15 "HgN/A
9:00 am61 °FSunny.2 mph88%30.15 "Hg10 mi
8:30 am57 °FPassing clouds.5 mph100%30.12 "HgN/A
8:00 am57 °FScattered clouds.6 mph100%30.12 "HgN/A
7:30 am57 °FFog.5 mph100%30.12 "HgN/A
7:00 am57 °FScattered showers. Passing clouds.6 mph100%30.12 "HgN/A
6:30 am55 °FScattered showers. Passing clouds.7 mph100%30.09 "HgN/A
6:00 am54 °FRain. Overcast.6 mph100%30.09 "Hg2 mi
5:30 am52 °FSprinkles. Overcast.3 mph100%30.09 "Hg3 mi
5:00 am52 °FLots of rain. Partly cloudy.3 mph94%30.09 "Hg1 mi
4:52 am52 °FRain showers. Partly cloudy.5 mph94%30.07 "Hg2 mi
4:30 am52 °FPassing clouds.7 mph94%30.07 "HgN/A
4:00 am52 °FPassing clouds.7 mph94%30.07 "HgN/A
3:30 am50 °FClear.7 mph100%30.07 "Hg10 mi
3:00 am52 °FClear.6 mph94%30.07 "Hg10 mi
2:30 am52 °FPassing clouds.7 mph94%30.07 "HgN/A
2:00 am50 °FPassing clouds.5 mph100%30.07 "HgN/A
1:30 am52 °FPassing clouds.7 mph94%30.07 "HgN/A
1:00 am52 °FPassing clouds.7 mph94%30.07 "HgN/A
12:30 am50 °FPassing clouds.6 mph100%30.09 "HgN/A
12:00 am52 °FPassing clouds.6 mph94%30.09 "HgN/A
11:30 pm
Thu, May 25
52 °FPassing clouds.5 mph100%30.09 "HgN/A
11:00 pm52 °FPassing clouds.5 mph94%30.09 "HgN/A
10:30 pm52 °FPassing clouds.No wind100%30.09 "HgN/A
10:00 pm52 °FPassing clouds.3 mph94%30.09 "HgN/A
9:30 pm54 °FPassing clouds.1 mph94%30.09 "HgN/A
9:00 pm54 °FPassing clouds.3 mph94%30.09 "HgN/A
8:30 pm57 °FPassing clouds.6 mph82%30.09 "HgN/A
8:00 pm61 °FPassing clouds.6 mph83%30.09 "HgN/A
7:30 pm63 °FPartly cloudy.6 mph77%30.09 "HgN/A
7:00 pm64 °FPassing clouds.5 mph68%30.09 "HgN/A
6:30 pm63 °FPassing clouds.5 mph68%30.09 "HgN/A
6:00 pm63 °FClear.6 mph68%30.09 "Hg10 mi
5:30 pm64 °FClear.6 mph64%30.09 "Hg10 mi
5:00 pm66 °FSunny.7 mph56%30.09 "Hg10 mi
4:30 pm68 °FPassing clouds.10 mph49%30.09 "HgN/A
4:00 pm70 °FPassing clouds.9 mph46%30.09 "HgN/A
3:30 pm70 °FSunny.9 mph43%30.07 "Hg10 mi
3:00 pm72 °FPassing clouds.9 mph41%30.07 "HgN/A
2:30 pm72 °FSunny.9 mph41%30.07 "Hg10 mi
2:00 pm72 °FSunny.9 mph41%30.09 "Hg10 mi
1:30 pm72 °FPassing clouds.9 mph44%30.09 "HgN/A
1:00 pm70 °FPassing clouds.10 mph43%30.09 "HgN/A
Weather by CustomWeather, © 2017

See weather overviewHow to use our weather pages